This is the latest recevied weather packets stored in our database for station/object K0QED. If no packets are shown the sender has not sent any weather packets the latest 10 day(s).
| Time | Temp. | Humidity | Pressure | Rain* | Wind** | Luminosity | Snow |
|---|---|---|---|---|---|---|---|
| 1777830208 | 17.78° C | 23% | 1021 hPa | 0 mm | - | 682 W/m² | - |
| 1777829903 | 16.67° C | 24% | 1021.1 hPa | 0 mm | - | 627 W/m² | - |
| 1777829599 | 16.11° C | 24% | 1021.2 hPa | 0 mm | - | 630 W/m² | - |
| 1777829296 | 16.11° C | 25% | 1021.1 hPa | 0 mm | - | 509 W/m² | - |
| 1777828994 | 16.11° C | 25% | 1021.2 hPa | 0 mm | - | 415 W/m² | - |
| 1777828690 | 16.11° C | 24% | 1021.2 hPa | 0 mm | - | 560 W/m² | - |
| 1777828386 | 16.67° C | 26% | 1021.4 hPa | 0 mm | - | 506 W/m² | - |
| 1777828084 | 16.11° C | 25% | 1021.6 hPa | 0 mm | - | 561 W/m² | - |
| 1777827780 | 16.11° C | 28% | 1021.7 hPa | 0 mm | - | 506 W/m² | - |
| 1777827477 | 15.56° C | 25% | 1021.5 hPa | 0 mm | - | 322 W/m² | - |
| 1777827175 | 15.56° C | 26% | 1021.6 hPa | 0 mm | - | 382 W/m² | - |
| 1777826870 | 15.56° C | 26% | 1021.5 hPa | 0 mm | - | 492 W/m² | - |
| 1777826569 | 15.56° C | 27% | 1021.6 hPa | 0 mm | - | 475 W/m² | - |
| 1777826264 | 16.11° C | 27% | 1021.7 hPa | 0 mm | - | 495 W/m² | - |
| 1777825963 | 16.67° C | 26% | 1021.7 hPa | 0 mm | - | 567 W/m² | - |
| 1777825659 | 16.11° C | 26% | 1021.7 hPa | 0 mm | - | 433 W/m² | - |
| 1777825357 | 16.11° C | 26% | 1021.7 hPa | 0 mm | - | 434 W/m² | - |
| 1777825053 | 16.11° C | 27% | 1021.9 hPa | 0 mm | - | 525 W/m² | - |
| 1777824749 | 15.56° C | 27% | 1021.6 hPa | 0 mm | - | 482 W/m² | - |
| 1777824447 | 15° C | 29% | 1021.7 hPa | 0 mm | - | 432 W/m² | - |
| 1777824142 | 15° C | 28% | 1022 hPa | 0 mm | - | 383 W/m² | - |
| 1777823839 | 14.44° C | 27% | 1022 hPa | 0 mm | - | 362 W/m² | - |
| 1777823537 | 14.44° C | 29% | 1022.2 hPa | 0 mm | - | 257 W/m² | - |
| 1777823233 | 14.44° C | 29% | 1021.9 hPa | 0 mm | - | 228 W/m² | - |
| 1777822931 | 14.44° C | 28% | 1021.9 hPa | 0 mm | - | 215 W/m² | - |
* Rain latest hour (hover to see other rain measurements)
** Current wind speed in m/s (hover to see current wind gust speed)